EDT,Max TemperatureF,Mean TemperatureF,Min TemperatureF,Max Dew PointF,MeanDew PointF,Min DewpointF,Max Humidity, Mean Humidity, Min Humidity, Max Sea Level PressureIn, Mean Sea Level PressureIn, Min Sea Level PressureIn, Max VisibilityMiles, Mean VisibilityMiles, Min VisibilityMiles, Max Wind SpeedMPH, Mean Wind SpeedMPH, Max Gust SpeedMPH,PrecipitationIn, CloudCover, Events, WindDirDegrees
2013-8-1,88,80,72,75,72,71,94,80,65,30.02,29.96,29.90,10,9,5,15,5,41,0.01,5,Rain-Thunderstorm,199
2013-8-2,89,80,71,77,73,71,100,82,63,30.03,29.97,29.92,10,6,0,8,1,31,0.00,5,Fog,171
2013-8-3,93,82,70,75,72,68,100,75,49,30.04,30.00,29.95,10,6,0,14,4,16,0.00,1,Fog-Rain,292
2013-8-4,92,83,73,77,73,70,87,70,52,30.01,29.96,29.91,10,8,0,15,5,18,1.19,3,Fog-Rain-Thunderstorm,230
2013-8-5,88,80,71,74,71,68,100,80,59,30.05,30.00,29.97,10,8,2,14,5,18,T,4,Rain,128
2013-8-6,87,79,71,75,71,68,100,83,65,30.04,30.00,29.96,10,10,6,14,4,22,0.02,5,,153
2013-8-7,89,80,71,74,72,69,100,78,55,30.07,30.03,29.98,10,8,2,10,3,14,0.00,2,Rain,133
2013-8-8,91,80,69,74,71,68,100,75,49,30.06,30.03,29.99,10,7,0,8,3,15,0.00,1,Fog,154
2013-8-9,92,83,73,78,75,72,97,79,60,30.11,30.06,30.01,10,9,2,14,4,32,0.00,4,Thunderstorm,195
2013-8-10,94,83,72,75,73,70,100,73,46,30.13,30.10,30.05,10,9,2,13,3,16,0.00,1,,198
2013-8-11,94,83,71,75,72,70,100,73,46,30.15,30.10,30.05,10,10,6,13,4,20,0.00,1,,239
2013-8-12,95,84,72,79,74,72,100,76,52,30.09,30.04,29.97,10,9,2,14,3,30,0.05,2,Rain-Thunderstorm,252
2013-8-13,94,84,73,74,73,71,94,72,49,29.98,29.92,29.85,10,10,9,20,6,25,0.01,2,Rain,247
2013-8-14,85,78,71,74,71,66,94,75,55,30.03,29.93,29.86,10,10,5,11,5,18,0.15,4,Rain,27
2013-8-15,72,68,63,70,65,61,100,94,87,30.10,30.06,29.99,10,6,1,15,5,20,1.02,8,Rain,51
2013-8-16,68,67,65,66,65,64,100,94,87,30.12,30.07,30.04,10,5,0,14,4,17,2.12,8,Fog-Rain,27
2013-8-17,71,69,66,70,66,64,100,95,90,30.16,30.11,30.07,10,7,2,9,4,29,0.27,8,Rain,44
2013-8-18,88,79,69,73,71,68,100,81,61,30.19,30.15,30.09,10,7,1,24,2,33,0.41,7,Rain-Thunderstorm,128
2013-8-19,85,78,71,75,72,70,100,87,74,30.17,30.11,30.05,10,9,2,12,3,30,0.22,7,Rain,17
2013-8-20,86,79,72,77,74,71,100,85,70,30.17,30.12,30.08,10,8,2,8,3,12,0.11,6,Rain-Thunderstorm,52
2013-8-21,91,81,71,75,72,70,100,75,49,30.23,30.17,30.11,10,8,2,12,2,12,0.10,6,Rain-Thunderstorm,40
2013-8-22,92,81,70,75,72,70,100,75,49,30.17,30.12,30.02,10,6,0,20,3,24,0.10,2,Fog-Rain-Thunderstorm,254
2013-8-23,91,80,69,76,72,69,100,78,56,30.06,30.02,29.96,10,10,7,15,5,21,0.07,2,Rain-Thunderstorm,208
2013-8-24,81,75,68,70,69,67,100,81,62,30.24,30.15,30.03,10,9,4,13,5,18,0.00,5,,44
2013-8-25,85,73,60,67,61,57,100,70,40,30.34,30.28,30.23,10,10,6,15,5,24,0.00,1,,54
2013-8-26,85,71,57,63,59,54,100,69,37,30.29,30.23,30.14,10,10,10,12,2,16,0.00,0,,29
2013-8-27,89,73,56,71,63,56,100,73,46,30.16,30.08,30.01,10,10,8,8,1,12,0.00,0,,322
2013-8-28,90,77,63,72,66,63,100,74,47,30.04,30.01,29.95,10,6,1,10,3,21,0.00,0,,212
2013-8-29,95,82,68,76,72,68,100,73,46,29.97,29.93,29.88,10,6,1,10,2,18,0.00,0,Thunderstorm,334
2013-8-30,89,80,71,75,72,70,100,78,56,30.03,29.97,29.93,10,8,2,10,3,12,0.00,4,,91
2013-8-31,90,80,69,75,72,70,100,80,59,29.98,29.94,29.88,10,5,0,9,2,13,T,4,Fog,191